"Pseudo-MPEC" for P10Ybqr

Created 2020 Mar 29 18:07:11 UT using Find_Orb

Click here for an explanation of pseudo-MPECs

 
 Astrometry: 
     P10Ybqr  C2020 03 24p+LIPL5ocug+5tPdlF3A\v2Lk^shuKM!NWM=Mj8nOMhYk4Y$5;efF51
     P10Ybqr  C2020 03 24AWJ:1li\@Ddwq'$;?rjF;#7O]p7e^$,o(!uD=oi[F`cKV\w]8$tBF51
     P10Ybqr  C2020 03 24aD`xcDpm+qAstrometrytZ;kO^LuyiFULxU/6Y]2t\ssEqO;?4f9F51
     P10Ybqr KC2020 03 25n\^C@d??T?NZ=^i.=@lbme.?n#^)jQwLiAFS:@-3nAQredacted;K93
     P10Ybqr KC2020 03 25R09Jk3S'[;)?8click2/id52_5eyUM2$n=0YVZJDP#%e?%o8=[!`K93
     P10Ybqr KC2020 03 25E6r*%7)[p933IFD*pB4MGFLI^C*_]POUZUFje4)R!Rxherey6Hu%K93
     P10Ybqr KC2020 03 29uBYvn(4k2NN#]Q2*oVI]_!8lyl\Gg;v0tLXforaJi5x_l66Y@_5iJ04
     P10Ybqr KC2020 03 29BOD[AC'WDnstXGG7$b;mQ9,C)CI(8l%g6:b3As1iF,Hn-_rI?mKwJ04
     P10Ybqr KC2020 03 29wHTQFG0g7JOKk\ZIB(=explanation)A5,uT,i%*@(8tY^AiKYm^J04

Station data:
(F51) Pan-STARRS 1, Haleakala  (N20.707235 W156.255910)  US/Hawaii.
   Observers N. Primak, A. Schultz, S. Watters, J. Thiel, T. Goggia. Measurer
   PS1 Science Consortium. 1.8-m Ritchey-Chrétien + CCD.
(J04) ESA Optical Ground Station, Tenerife  (N28.300924 W16.511830)  Canary
   Islands (Spain).  Observer D. Abreu. Measurers M. Micheli, D. Koschny, E.
   Schwab, M. Busch, A. Knöfel. 1.0-m f/4.4 reflector + CCD.
(K93) Sutherland-LCOGT C  (S32.380670 E20.810110)  South Africa.  Observer R.
   Miles. 1.0-m f/8.0 Ritchey-Chrétien + CCD.

Orbital elements:  P10Ybqr
   Perihelion 2020 Jun 24.546444 +/- 0.317 TT = 13:06:52 (JD 2459025.046444)
Epoch 2020 Mar 29.0 TT = JDT 2458937.5   Earth MOID: 0.0222   Ve: 0.0578
M 297.09457525 +/- 0.8              Ma: 0.0689                AutoNEOCP
n   0.71853774 +/- 0.00766          Peri.   57.38147 +/- 0.6
a   1.23453381 +/- 0.00877          Node   248.09252 +/- 0.36
e   0.3900977 +/- 0.00484           Incl.    2.80465 +/- 0.021
P   1.37/501.01d           H 22.7   G  0.15   U  9.5  
q 0.75294498 +/- 0.002    Q 1.71612265 +/- 0.0181
From 9 observations 2020 Mar. 24-29; mean residual 0".07
Residuals in arcseconds: 
200324 F51  .02+  .00     200325 K93  .02-  .03-    200329 J04  .01+  .08-    
200324 F51  .10-  .09+    200325 K93  .04+  .00     200329 J04  .03+  .08-    
200324 F51  .08+  .09-    200325 K93  .03-  .03+    200329 J04  .06-  .17+    

Ephemerides (geocentric):
Date (UTC) HH   RA              Dec         delta   r     elong  mag " sig PA
---- -- -- --  -------------   -----------  ------ ------ -----  --- ---- ---
2020 03 29 18  15 12 49.975   -28 35 17.87  .25159 1.1894 134.8 21.6 .363  32
2020 03 29 19  15 12 58.104   -28 36 17.97  .25124 1.1891 134.8 21.6 .365  33
2020 03 29 20  15 13 06.250   -28 37 18.16  .25088 1.1889 134.8 21.6 .367  34
2020 03 29 21  15 13 14.414   -28 38 18.43  .25052 1.1886 134.8 21.6 .368  35
2020 03 29 22  15 13 22.596   -28 39 18.79  .25017 1.1883 134.8 21.6 .370  35
2020 03 29 23  15 13 30.795   -28 40 19.24  .24981 1.1881 134.8 21.6 .372  36
2020 03 30 00  15 13 39.012   -28 41 19.78  .24945 1.1878 134.8 21.6 .373  37
2020 03 30 01  15 13 47.247   -28 42 20.41  .24910 1.1876 134.8 21.6 .375  38
2020 03 30 02  15 13 55.500   -28 43 21.12  .24874 1.1873 134.8 21.6 .377  39
2020 03 30 03  15 14 03.770   -28 44 21.93  .24839 1.1870 134.8 21.6 .380  39
2020 03 30 04  15 14 12.059   -28 45 22.82  .24803 1.1868 134.8 21.6 .382  40
2020 03 30 05  15 14 20.366   -28 46 23.80  .24767 1.1865 134.9 21.6 .384  41
2020 03 30 06  15 14 28.691   -28 47 24.87  .24732 1.1863 134.9 21.6 .387  42
2020 03 30 07  15 14 37.035   -28 48 26.03  .24696 1.1860 134.9 21.5 .390  43
2020 03 30 08  15 14 45.397   -28 49 27.28  .24661 1.1857 134.9 21.5 .392  44
2020 03 30 09  15 14 53.778   -28 50 28.62  .24625 1.1855 134.9 21.5 .395  45
2020 03 30 10  15 15 02.177   -28 51 30.05  .24590 1.1852 134.9 21.5 .399  46
2020 03 30 11  15 15 10.595   -28 52 31.57  .24554 1.1849 134.9 21.5 .402  47
2020 03 30 12  15 15 19.031   -28 53 33.18  .24519 1.1847 134.9 21.5 .406  48
2020 03 30 13  15 15 27.487   -28 54 34.88  .24484 1.1844 134.9 21.5 .409  49
2020 03 30 14  15 15 35.961   -28 55 36.68  .24448 1.1842 134.9 21.5 .413  50
2020 03 30 15  15 15 44.455   -28 56 38.56  .24413 1.1839 134.9 21.5 .418  51
2020 03 30 16  15 15 52.967   -28 57 40.54  .24377 1.1836 134.9 21.5 .422  52
2020 03 30 17  15 16 01.499   -28 58 42.61  .24342 1.1834 134.9 21.5 .427  54
2020 03 30 18  15 16 10.050   -28 59 44.77  .24307 1.1831 134.9 21.5 .432  55
2020 03 30 19  15 16 18.621   -29 00 47.03  .24271 1.1829 134.9 21.5 .437  56
2020 03 30 20  15 16 27.211   -29 01 49.38  .24236 1.1826 134.9 21.5 .443  57
2020 03 30 21  15 16 35.820   -29 02 51.82  .24201 1.1823 134.9 21.5 .449  58
2020 03 30 22  15 16 44.449   -29 03 54.35  .24165 1.1821 134.9 21.5 .455  59
2020 03 30 23  15 16 53.098   -29 04 56.98  .24130 1.1818 134.9 21.5 .461  60
2020 03 31 00  15 17 01.767   -29 05 59.71  .24095 1.1816 134.9 21.5 .468  61
2020 03 31 01  15 17 10.456   -29 07 02.53  .24060 1.1813 134.9 21.5 .475  62
2020 03 31 02  15 17 19.165   -29 08 05.44  .24024 1.1810 134.9 21.5 .483  64
2020 03 31 03  15 17 27.894   -29 09 08.45  .23989 1.1808 134.9 21.5 .491  65
2020 03 31 04  15 17 36.643   -29 10 11.55  .23954 1.1805 134.9 21.5 .499  66
2020 03 31 05  15 17 45.413   -29 11 14.75  .23919 1.1802 135.0 21.5 .508  67
2020 03 31 06  15 17 54.203   -29 12 18.05  .23884 1.1800 135.0 21.5 .517  68
2020 03 31 07  15 18 03.014   -29 13 21.44  .23849 1.1797 135.0 21.5 .526  69
2020 03 31 08  15 18 11.845   -29 14 24.93  .23814 1.1795 135.0 21.5 .536  70
2020 03 31 09  15 18 20.697   -29 15 28.51  .23778 1.1792 135.0 21.5 .546  71
2020 03 31 10  15 18 29.569   -29 16 32.19  .23743 1.1789 135.0 21.5 .556  72
2020 03 31 11  15 18 38.463   -29 17 35.97  .23708 1.1787 135.0 21.5 .567  73
2020 03 31 12  15 18 47.378   -29 18 39.85  .23673 1.1784 135.0 21.4 .579  74
2020 03 31 13  15 18 56.314   -29 19 43.82  .23638 1.1782 135.0 21.4 .591  75
2020 03 31 14  15 19 05.271   -29 20 47.89  .23603 1.1779 135.0 21.4 .603  76
2020 03 31 15  15 19 14.249   -29 21 52.06  .23568 1.1776 135.0 21.4 .616  77
2020 03 31 16  15 19 23.249   -29 22 56.33  .23533 1.1774 135.0 21.4 .629  78
2020 03 31 17  15 19 32.270   -29 24 00.70  .23498 1.1771 135.0 21.4 .642  79